Terminal Aerodrome Forecast
Issued by NWS Houston/Galveston, TX

Home | Current Version | Previous Version | Text Only | Print | Product List | Glossary On
Versions: 1 2 3 4 5 6 7 8 9 10 11 12 13 14 15 16 17 18 19 20 21 22 23 24 25 26 27 28 29 30 31 32 33 34 35 36 37 38 39 40 41 42 43 44 45 46 47 48 49 50
000
FTUS44 KHGX 041750
TAFGLS
TAF
KGLS 041750Z 0418/0518 18010KT 6SM BR FEW006 SCT010 OVC028
      TEMPO 0422/0501 3SM BR BKN010 OVC020
     FM050100 14009KT 1SM BR OVC005
      TEMPO 0502/0504 1/2SM FG VV004
     FM050500 35013G23KT 5SM SHRA OVC004
     FM050700 35027G40KT P6SM -SHRA OVC004
     FM051500 36023G35KT P6SM -RA OVC007=

USA.gov is the U.S. government's official web portal to all federal, state and local government web resources and services.